Sable Island, Nova Scotia

11:04 AM ADT on April 21, 2018 (GMT -0300)
Sable Island

Weather History for CWSA - January, 2013

Change the Weather History Date:

Thursday, January 10, 2013

  Actual Average Record
Temperature  
Mean Temperature 40 °F -  
Max Temperature 44 °F 36 °F 50 °F (1999)
Min Temperature 35 °F 25 °F 17 °F (2004)
Degree Days  
Heating Degree Days 26    
Moisture  
Dew Point 35 °F    
Average Humidity 84    
Maximum Humidity 100    
Minimum Humidity 62    
Precipitation  
Precipitation 0.39 in 0.18 in - ()
Sea Level Pressure  
Sea Level Pressure 29.69 in    
Wind  
Wind Speed 24 mph ()    
Max Wind Speed 45 mph    
Max Gust Speed 55 mph    
Visibility 4.8 miles    
Events Rain , Snow    
Averages and records for this station are not official NWS values.
T = Trace of Precipitation, MM = Missing Value Source: Averaged Metar Reports

Daily Weather History Graph

Daily Weather History Graph

Search for Another Location

Airport or City:

Astronomy

Jan. 10, 2013 Rise Set
Actual Time 7:33 AM AST 4:42 PM AST
Civil Twilight 7:01 AM AST 5:14 PM AST
Nautical Twilight 6:25 AM AST 5:50 PM AST
Astronomical Twilight 5:50 AM AST 6:25 PM AST
Moon 6:08 AM AST (1/10) 3:44 PM AST (1/10)
Length of Visible Light 10h 13m
Length of Day
9h 09m
Waning Crescent, 2% of the Moon is Illuminated
Jan 10
Waning Crescent
Jan 11
New
Jan 18
First Quarter
Jan 27
Full
Feb 3
Last Quarter

Hourly Weather History & Observations

Time (AST) Temp. Windchill Dew Point Humidity Pressure Visibility Wind Dir Wind Speed Gust Speed Precip Events Conditions
12:00 AM 39.2 °F 29.6 °F 33.8 °F 81% 30.06 in 7.0 mi SSE 19.6 mph - N/A   Partly Cloudy
1:00 AM 39.2 °F 29.0 °F 33.8 °F 81% 29.98 in 7.0 mi SSE 21.9 mph - N/A   Mostly Cloudy
1:08 AM 39.2 °F 29.0 °F 35.6 °F 87% 29.96 in 6.0 mi SSE 21.9 mph - N/A Rain Light Rain
1:09 AM 39.2 °F 29.3 °F 35.6 °F 87% 29.96 in 6.0 mi SSE 20.7 mph - N/A Rain Light Rain
1:35 AM 39.2 °F 29.6 °F 35.6 °F 87% 29.94 in 4.0 mi SSE 19.6 mph 27.6 mph N/A Rain Light Rain
1:47 AM 39.2 °F 29.3 °F 35.6 °F 87% 29.93 in 2.5 mi SSE 20.7 mph - N/A Rain Light Rain
2:00 AM 39 °F - 36 °F 85% 29.92 in 2 mi SSE 18.4 mph - -   Unknown Precipitation
2:00 AM 39.2 °F 29.6 °F 35.6 °F 87% 29.92 in 2.4 mi SSE 19.6 mph - N/A Rain Rain
2:15 AM 39.2 °F 29.8 °F 37.4 °F 93% 29.90 in 2.2 mi SSE 18.4 mph 24.2 mph N/A Rain Rain
2:38 AM 41.0 °F 31.9 °F 37.4 °F 87% 29.86 in 2.0 mi SSE 19.6 mph - N/A Rain Rain
3:00 AM 41.0 °F 31.9 °F 39.2 °F 93% 29.81 in 2.1 mi SE 19.6 mph - N/A Rain Rain
3:25 AM 41.0 °F 32.2 °F 39.2 °F 93% 29.74 in 2.1 mi SE 18.4 mph - N/A Rain Light Rain
3:32 AM 41.0 °F 32.2 °F 39.2 °F 93% 29.73 in 2.5 mi SE 18.4 mph - N/A Rain Light Rain
3:38 AM 42.8 °F 33.8 °F 39.2 °F 87% 29.72 in 2.5 mi SE 21.9 mph - N/A   Mostly Cloudy
3:41 AM 42.8 °F 33.5 °F 39.2 °F 87% 29.71 in 2.5 mi SSE 23.0 mph - N/A Rain Light Rain
3:51 AM 42.8 °F 33.8 °F 39.2 °F 87% 29.70 in 2.5 mi SSE 21.9 mph 28.8 mph N/A Rain Light Rain
3:59 AM 42.8 °F 33.5 °F 39.2 °F 87% 29.69 in 3.0 mi SSE 23.0 mph - N/A Rain Light Rain
4:00 AM 42.8 °F 33.5 °F 39.2 °F 87% 29.70 in 3.0 mi SSE 23.0 mph - N/A Rain Light Rain
4:05 AM 42.8 °F 33.5 °F 41.0 °F 93% 29.69 in 2.5 mi SSE 23.0 mph 28.8 mph N/A Rain Rain
4:38 AM 42.8 °F 35.1 °F 41.0 °F 93% 29.66 in 1.4 mi SSE 16.1 mph - N/A Rain Heavy Rain
4:58 AM 42.8 °F 35.8 °F 41.0 °F 93% 29.63 in 2.1 mi South 13.8 mph - N/A Rain Light Rain
5:00 AM 43 °F - 41 °F 92% 29.62 in 2 mi South 13.8 mph - - Rain Light Rain
5:00 AM 42.8 °F 36.2 °F 41.0 °F 93% 29.62 in 2.1 mi South 12.7 mph - N/A Rain Light Rain
5:27 AM 42.8 °F 36.2 °F 42.8 °F 100% 29.59 in 5.0 mi South 12.7 mph - N/A Rain Light Rain
5:30 AM 42.8 °F 36.2 °F 42.8 °F 100% 29.59 in 5.0 mi South 12.7 mph - N/A   Overcast
5:51 AM 42.8 °F 33.3 °F 42.8 °F 100% 29.58 in 6.0 mi SW 24.2 mph - N/A   Overcast
5:58 AM 42.8 °F 33.3 °F 42.8 °F 100% 29.58 in 6.0 mi WSW 24.2 mph - N/A   Overcast
6:00 AM 42.8 °F 33.1 °F 41.0 °F 93% 29.58 in 6.0 mi WSW 25.3 mph - N/A   Overcast
6:15 AM 42.8 °F 33.5 °F 41.0 °F 93% 29.58 in 6.0 mi WSW 23.0 mph 28.8 mph N/A   Overcast
7:00 AM 42.8 °F 34.3 °F 41.0 °F 93% 29.57 in 4.0 mi West 19.6 mph 29.9 mph N/A   Overcast
7:55 AM 41.0 °F 30.7 °F 37.4 °F 87% 29.57 in 5.0 mi West 25.3 mph 34.5 mph N/A   Scattered Clouds
8:00 AM 41 °F - 37 °F 80% 29.57 in 6 mi West 26.5 mph - -   Unknown Precipitation
8:00 AM 41.0 °F 30.2 °F 37.4 °F 87% 29.57 in 6.0 mi West 27.6 mph 36.8 mph N/A   Partly Cloudy
8:28 AM 41.0 °F 30.9 °F 37.4 °F 87% 29.58 in 6.0 mi West 24.2 mph 41.4 mph N/A   Mostly Cloudy
9:00 AM 41.0 °F 31.4 °F 35.6 °F 81% 29.58 in 7.0 mi WNW 21.9 mph 39.1 mph N/A   Overcast
10:00 AM 41.0 °F 30.7 °F 35.6 °F 81% 29.60 in 8.0 mi WNW 25.3 mph 34.5 mph N/A   Overcast
10:22 AM 41.0 °F 31.4 °F 35.6 °F 81% 29.59 in 7.0 mi WNW 21.9 mph 33.4 mph N/A   Overcast
10:45 AM 41.0 °F 30.7 °F 35.6 °F 81% 29.58 in 6.0 mi WNW 25.3 mph 34.5 mph N/A   Overcast
11:00 AM 40 °F - 35 °F 75% 29.58 in 6 mi WNW 25.3 mph - -   Overcast
11:00 AM 39.2 °F 28.7 °F 35.6 °F 87% 29.58 in 6.0 mi WNW 23.0 mph 35.7 mph N/A   Overcast
11:46 AM 39.2 °F 26.8 °F 33.8 °F 81% 29.56 in 3.5 mi WNW 33.4 mph 41.4 mph N/A   Overcast
11:48 AM 37.4 °F 24.0 °F 33.8 °F 87% 29.56 in 2.1 mi WNW 35.7 mph 42.6 mph N/A   Unknown
11:54 AM 37.4 °F 25.2 °F 33.8 °F 87% 29.56 in 1.5 mi WNW 28.8 mph 42.6 mph N/A Rain Light Rain
12:00 PM 37.4 °F 25.2 °F 33.8 °F 87% 29.56 in 3.0 mi WNW 28.8 mph 42.6 mph N/A Rain Light Rain
12:05 PM 39.2 °F 27.8 °F 35.6 °F 87% 29.55 in 7.0 mi WNW 27.6 mph 38.0 mph N/A   Overcast
12:11 PM 39.2 °F 26.5 °F 33.8 °F 81% 29.55 in 7.0 mi WNW 35.7 mph - N/A   Overcast
1:00 PM 37.4 °F 24.0 °F 32.0 °F 81% 29.55 in 7.0 mi WNW 35.7 mph 43.7 mph N/A   Overcast
1:16 PM 37.4 °F 25.9 °F 33.8 °F 87% 29.55 in 8.0 mi WNW 25.3 mph 34.5 mph N/A   Overcast
1:41 PM 37.4 °F 23.8 °F 32.0 °F 81% 29.56 in 5.0 mi WNW 36.8 mph 43.7 mph N/A   Overcast
2:00 PM 37 °F - 32 °F 77% 29.57 in 6 mi WNW 32.2 mph - -   Unknown Precipitation
2:00 PM 37.4 °F 24.4 °F 32.0 °F 81% 29.57 in 6.0 mi NW 33.4 mph 40.3 mph N/A   Overcast
2:21 PM 37.4 °F 24.8 °F 32.0 °F 81% 29.57 in 5.0 mi NW 31.1 mph 44.9 mph N/A   Overcast
2:33 PM 37.4 °F 24.6 °F 32.0 °F 81% 29.58 in 5.0 mi NW 32.2 mph 42.6 mph N/A   Overcast
2:47 PM 37.4 °F 24.0 °F 32.0 °F 81% 29.58 in 7.0 mi NW 35.7 mph 46.0 mph N/A   Overcast
2:56 PM 37.4 °F 24.0 °F 30.2 °F 75% 29.59 in 7.0 mi NW 35.7 mph 46.0 mph N/A   Overcast
3:43 PM 37.4 °F 23.6 °F 30.2 °F 75% 29.61 in 7.0 mi NW 38.0 mph 49.5 mph N/A Rain Light Rain
4:00 PM 37.4 °F 23.0 °F 30.2 °F 75% 29.62 in 6.0 mi NW 42.6 mph 51.8 mph N/A Rain Light Rain
4:13 PM 37.4 °F 22.7 °F 30.2 °F 75% 29.62 in 7.0 mi NW 44.9 mph 51.8 mph N/A   Overcast
4:47 PM 37.4 °F 23.0 °F 32.0 °F 81% 29.64 in 7.0 mi NW 42.6 mph 48.3 mph N/A   Overcast
5:00 PM 37 °F - 31 °F 69% 29.66 in 7 mi NW 40.3 mph - -   Overcast
5:00 PM 37.4 °F 23.1 °F 30.2 °F 75% 29.66 in 7.0 mi NW 41.4 mph 50.6 mph N/A   Overcast
5:38 PM 37.4 °F 23.0 °F 32.0 °F 81% 29.68 in 5.0 mi NW 42.6 mph 49.5 mph N/A   Overcast
6:00 PM 35.6 °F 20.8 °F 32.0 °F 87% 29.70 in 5.0 mi NW 40.3 mph 48.3 mph N/A   Overcast
6:03 PM 35.6 °F 20.8 °F 32.0 °F 87% 29.70 in 4.0 mi NW 40.3 mph 50.6 mph N/A Rain Light Rain
7:00 PM 35.6 °F 20.3 °F 32.0 °F 87% 29.74 in 5.0 mi NW 43.7 mph 51.8 mph N/A Rain Light Rain
7:16 PM 35.6 °F 20.6 °F 30.2 °F 81% 29.74 in 5.0 mi NW 41.4 mph 49.5 mph N/A Rain Light Rain
7:27 PM 35.6 °F 20.5 °F 30.2 °F 81% 29.75 in 5.0 mi NW 42.6 mph 50.6 mph N/A   Overcast
7:47 PM 35.6 °F 20.8 °F 30.2 °F 81% 29.76 in 5.0 mi NW 40.3 mph 50.6 mph N/A   Overcast
7:48 PM 35.6 °F 20.3 °F 30.2 °F 81% 29.76 in 5.0 mi NW 43.7 mph 52.9 mph N/A Snow Light Snow
7:50 PM 35.6 °F 21.1 °F 30.2 °F 81% 29.76 in 5.0 mi NW 38.0 mph 52.9 mph N/A Snow Light Snow
8:00 PM 36 °F - 29 °F 69% 29.77 in 5 mi NW 40.3 mph - -   Unknown Precipitation
8:00 PM 35.6 °F 20.3 °F 30.2 °F 81% 29.77 in 5.0 mi NW 43.7 mph 49.5 mph N/A Snow Light Snow
8:14 PM 35.6 °F 20.6 °F 28.4 °F 75% 29.78 in 5.0 mi NW 41.4 mph 55.2 mph N/A   Overcast
9:00 PM 35.6 °F 21.0 °F 30.2 °F 81% 29.81 in 5.0 mi NW 39.1 mph 50.6 mph N/A   Overcast
10:00 PM 35.6 °F 20.1 °F 28.4 °F 75% 29.83 in 5.0 mi NW 44.9 mph 55.2 mph N/A   Overcast
11:00 PM 35 °F - 27 °F 62% 29.85 in 5 mi NNW 41.4 mph - -   Overcast
11:00 PM 35.6 °F 20.5 °F 26.6 °F 70% 29.85 in 5.0 mi NW 42.6 mph 55.2 mph N/A   Overcast